When you browse on this site, cookies collect data to enhance your experience and personalize the content and advertising you see.
Visit our Privacy Policy to learn more. By continuing to use the site, you agree to this use of cookies and data.
  • în România
  • Lista ţărilor
  • Pe 7 zile
  • Temperatura apei
  • Hartă satelitară
  • Meteo pe hartă
  • Widget-uri
  • user-avatar
    Intrare

    Meteo pe oră la Guskhara

    Astăzi, 22 Aprilie, Luni

    Timp Temperatura Precipitaţii Vânt Presiune Umiditate
    00:00 +28°C° 0 mm 4 m/s 752 mmHg 72%
    01:00 +28°C° 0 mm 3 m/s 752 mmHg 71%
    02:00 +28°C° 0 mm 3 m/s 751 mmHg 71%
    03:00 +28°C° 0 mm 2 m/s 751 mmHg 70%
    04:00 +27°C° 0 mm 1 m/s 751 mmHg 72%
    05:00 +27°C° 0 mm 1 m/s 751 mmHg 73%
    06:00 +25°C° 0 mm 0 m/s 751 mmHg 75%
    07:00 +29°C° 0 mm 1 m/s 752 mmHg 67%
    08:00 +31°C° 0 mm 1 m/s 752 mmHg 59%
    09:00 +32°C° 0 mm 1 m/s 752 mmHg 51%
    10:00 +34°C° 0 mm 1 m/s 752 mmHg 44%
    11:00 +37°C° 0 mm 1 m/s 752 mmHg 36%
    12:00 +39°C° 0 mm 2 m/s 752 mmHg 32%
    13:00 +39°C° 0 mm 2 m/s 752 mmHg 29%
    14:00 +40°C° 0 mm 1 m/s 751 mmHg 25%
    15:00 +40°C° 0 mm 1 m/s 750 mmHg 22%
    16:00 +40°C° 0 mm 1 m/s 750 mmHg 24%
    17:00 +39°C° 0 mm 1 m/s 750 mmHg 26%
    18:00 +37°C° 0 mm 3 m/s 750 mmHg 31%
    19:00 +37°C° 0 mm 3 m/s 751 mmHg 33%
    20:00 +36°C° 0 mm 3 m/s 751 mmHg 34%
    21:00 +36°C° 0 mm 3 m/s 751 mmHg 36%
    22:00 +35°C° 0.1 mm 3 m/s 752 mmHg 40%
    23:00 +34°C° 0.1 mm 2 m/s 752 mmHg 44%

    Mâine, 23 Aprilie, Marţi

    Timp Temperatura Precipitaţii Vânt Presiune Umiditate
    00:00 +32°C° 0.1 mm 2 m/s 752 mmHg 48%
    01:00 +31°C° 0 mm 2 m/s 752 mmHg 52%
    02:00 +30°C° 0 mm 2 m/s 752 mmHg 56%
    03:00 +30°C° 0 mm 2 m/s 752 mmHg 60%
    04:00 +30°C° 0 mm 2 m/s 752 mmHg 64%
    05:00 +29°C° 0 mm 2 m/s 752 mmHg 69%
    06:00 +29°C° 0 mm 1 m/s 752 mmHg 73%
    07:00 +31°C° 0 mm 2 m/s 753 mmHg 64%
    08:00 +34°C° 0 mm 3 m/s 753 mmHg 54%
    09:00 +36°C° 0 mm 4 m/s 753 mmHg 45%
    10:00 +37°C° 0 mm 4 m/s 753 mmHg 40%
    11:00 +40°C° 0 mm 4 m/s 753 mmHg 35%
    12:00 +41°C° 0 mm 4 m/s 753 mmHg 30%
    13:00 +40°C° 0 mm 3 m/s 752 mmHg 29%
    14:00 +40°C° 0 mm 3 m/s 752 mmHg 28%
    15:00 +40°C° 0 mm 2 m/s 751 mmHg 27%
    16:00 +40°C° 0 mm 2 m/s 751 mmHg 28%
    17:00 +39°C° 0 mm 3 m/s 751 mmHg 29%
    18:00 +39°C° 0 mm 3 m/s 751 mmHg 30%
    19:00 +37°C° 0 mm 3 m/s 751 mmHg 36%
    20:00 +35°C° 0 mm 3 m/s 752 mmHg 42%
    21:00 +33°C° 0 mm 3 m/s 753 mmHg 48%
    22:00 +33°C° 0.1 mm 3 m/s 753 mmHg 50%
    23:00 +31°C° 0.1 mm 3 m/s 753 mmHg 51%

    Poimâine, 24 Aprilie, Miercuri

    Timp Temperatura Precipitaţii Vânt Presiune Umiditate
    00:00 +31°C° 0.1 mm 2 m/s 753 mmHg 53%
    01:00 +30°C° 0 mm 2 m/s 753 mmHg 55%
    02:00 +30°C° 0 mm 1 m/s 753 mmHg 56%
    03:00 +29°C° 0 mm 1 m/s 752 mmHg 58%
    04:00 +29°C° 0 mm 1 m/s 753 mmHg 59%
    05:00 +29°C° 0 mm 2 m/s 753 mmHg 60%
    06:00 +28°C° 0 mm 2 m/s 753 mmHg 61%
    07:00 +30°C° 0 mm 2 m/s 754 mmHg 54%
    08:00 +34°C° 0 mm 2 m/s 754 mmHg 46%
    09:00 +36°C° 0 mm 2 m/s 755 mmHg 38%
    10:00 +37°C° 0 mm 2 m/s 754 mmHg 34%
    11:00 +39°C° 0 mm 2 m/s 754 mmHg 30%
    12:00 +41°C° 0 mm 2 m/s 754 mmHg 26%
    13:00 +41°C° 0 mm 2 m/s 753 mmHg 24%
    14:00 +42°C° 0 mm 2 m/s 752 mmHg 22%
    15:00 +43°C° 0 mm 2 m/s 751 mmHg 20%
    16:00 +42°C° 0 mm 2 m/s 751 mmHg 22%
    17:00 +41°C° 0 mm 2 m/s 750 mmHg 23%
    18:00 +40°C° 0 mm 2 m/s 750 mmHg 25%
    19:00 +39°C° 0 mm 3 m/s 751 mmHg 32%
    20:00 +37°C° 0 mm 4 m/s 751 mmHg 40%
    21:00 +36°C° 0 mm 5 m/s 752 mmHg 47%
    22:00 +35°C° 0 mm 5 m/s 752 mmHg 52%
    23:00 +34°C° 0 mm 4 m/s 752 mmHg 57%

    25 Aprilie, Joi

    Timp Temperatura Precipitaţii Vânt Presiune Umiditate
    00:00 +33°C° 0 mm 4 m/s 752 mmHg 61%
    01:00 +33°C° 0 mm 3 m/s 752 mmHg 64%
    02:00 +31°C° 0 mm 3 m/s 752 mmHg 66%
    03:00 +31°C° 0 mm 2 m/s 751 mmHg 68%
    04:00 +30°C° 0 mm 2 m/s 751 mmHg 70%
    05:00 +30°C° 0 mm 2 m/s 752 mmHg 72%
    06:00 +29°C° 0 mm 1 m/s 752 mmHg 74%
    07:00 +31°C° 0 mm 2 m/s 752 mmHg 65%
    08:00 +34°C° 0 mm 3 m/s 753 mmHg 57%
    09:00 +36°C° 0 mm 3 m/s 754 mmHg 49%
    10:00 +38°C° 0 mm 3 m/s 753 mmHg 42%
    11:00 +40°C° 0 mm 3 m/s 753 mmHg 35%
    12:00 +43°C° 0 mm 3 m/s 753 mmHg 27%
    13:00 +43°C° 0 mm 3 m/s 752 mmHg 26%
    14:00 +44°C° 0 mm 3 m/s 751 mmHg 24%
    15:00 +43°C° 0 mm 2 m/s 750 mmHg 22%
    16:00 +42°C° 0 mm 2 m/s 750 mmHg 24%
    17:00 +42°C° 0 mm 2 m/s 750 mmHg 26%
    18:00 +41°C° 0 mm 2 m/s 750 mmHg 28%
    19:00 +40°C° 0 mm 3 m/s 750 mmHg 33%
    20:00 +38°C° 0 mm 4 m/s 751 mmHg 39%
    21:00 +38°C° 0 mm 6 m/s 751 mmHg 45%
    22:00 +36°C° 0 mm 6 m/s 751 mmHg 48%
    23:00 +35°C° 0 mm 6 m/s 751 mmHg 51%

    26 Aprilie, Vineri

    Timp Temperatura Precipitaţii Vânt Presiune Umiditate
    00:00 +34°C° 0 mm 5 m/s 751 mmHg 54%
    01:00 +33°C° 0 mm 5 m/s 751 mmHg 56%
    02:00 +33°C° 0 mm 5 m/s 750 mmHg 57%
    03:00 +32°C° 0 mm 4 m/s 750 mmHg 59%
    04:00 +32°C° 0 mm 4 m/s 750 mmHg 60%
    05:00 +31°C° 0 mm 3 m/s 750 mmHg 61%
    06:00 +30°C° 0 mm 3 m/s 750 mmHg 63%
    07:00 +33°C° 0 mm 3 m/s 751 mmHg 57%
    08:00 +35°C° 0 mm 4 m/s 751 mmHg 51%
    09:00 +36°C° 0 mm 4 m/s 752 mmHg 46%
    10:00 +40°C° 0 mm 4 m/s 751 mmHg 38%
    11:00 +42°C° 0 mm 4 m/s 751 mmHg 31%
    12:00 +45°C° 0 mm 4 m/s 751 mmHg 23%
    13:00 +44°C° 0 mm 3 m/s 750 mmHg 23%
    14:00 +44°C° 0 mm 3 m/s 749 mmHg 23%
    15:00 +43°C° 0 mm 2 m/s 748 mmHg 23%
    16:00 +42°C° 0 mm 2 m/s 748 mmHg 24%
    17:00 +42°C° 0 mm 2 m/s 748 mmHg 25%
    18:00 +42°C° 0 mm 1 m/s 748 mmHg 26%
    19:00 +40°C° 0 mm 3 m/s 749 mmHg 34%
    20:00 +39°C° 0 mm 5 m/s 750 mmHg 43%
    21:00 +36°C° 0 mm 6 m/s 750 mmHg 51%
    22:00 +35°C° 0 mm 6 m/s 750 mmHg 55%
    23:00 +34°C° 0 mm 6 m/s 750 mmHg 59%

    27 Aprilie, Sâmbătă

    Timp Temperatura Precipitaţii Vânt Presiune Umiditate
    00:00 +33°C° 0 mm 6 m/s 750 mmHg 63%
    01:00 +33°C° 0 mm 6 m/s 750 mmHg 65%
    02:00 +32°C° 0 mm 6 m/s 750 mmHg 67%
    03:00 +32°C° 0 mm 5 m/s 749 mmHg 68%
    04:00 +32°C° 0 mm 5 m/s 750 mmHg 69%
    05:00 +32°C° 0 mm 4 m/s 750 mmHg 71%
    06:00 +30°C° 0 mm 4 m/s 750 mmHg 72%
    07:00 +33°C° 0 mm 4 m/s 750 mmHg 64%
    08:00 +35°C° 0 mm 4 m/s 751 mmHg 56%
    09:00 +37°C° 0 mm 4 m/s 751 mmHg 49%
    10:00 +40°C° 0 mm 4 m/s 751 mmHg 41%
    11:00 +43°C° 0 mm 4 m/s 750 mmHg 33%
    12:00 +45°C° 0 mm 3 m/s 750 mmHg 25%
    13:00 +46°C° 0 mm 3 m/s 749 mmHg 23%
    14:00 +46°C° 0 mm 3 m/s 748 mmHg 21%
    15:00 +47°C° 0 mm 2 m/s 747 mmHg 18%
    16:00 +46°C° 0 mm 3 m/s 747 mmHg 20%
    17:00 +45°C° 0 mm 3 m/s 747 mmHg 23%
    18:00 +43°C° 0 mm 4 m/s 747 mmHg 25%
    19:00 +41°C° 0 mm 5 m/s 747 mmHg 38%
    20:00 +38°C° 0 mm 6 m/s 748 mmHg 50%
    21:00 +35°C° 0 mm 8 m/s 749 mmHg 63%
    22:00 +34°C° 0 mm 7 m/s 749 mmHg 65%
    23:00 +34°C° 0 mm 7 m/s 749 mmHg 66%
    Arată mai mult